GAOFEN-1 04

Last updated on Mon Sep 07 2026 00:02:46 GMT+0000 (Coordinated Universal Time)

1 43262U 18031D 26249.64497862 .00000108 00000+0 22953-4 0 9992 2 43262 98.0455 311.9614 0001965 113.3628 246.7789 14.76468118454709
UTC large
Height (km)
Speed (km/s)
/
Latitude / Longitude
Inclination (degrees)
Orbital Period (minutes)
Azimuth
Elevation
Range (km)
Doppler Factor

Next 0 passes for location: London (51.5072 / 0.1276)

No passes found over London.
GAOFEN-1 04